Total_Precipitation_Accumulation
2.50 2.61 2.58 2.67 2.89 2.88 3.02 3.26 3.37 3.31 3.25 3.29 3.34 3.33 3.28 3.14 2.87 2.59 2.41 2.40 2.42 2.56 2.84 2.79 3.15 3.27 3.32 3.25 3.26 3.37 3.29 3.08 3.30 3.23 2.71 2.09 1.61 1.53 1.43 1.47 1.59 1.58 1.79
2.63 2.82 2.89 2.83 2.91 2.95 3.07 3.33 3.46 3.53 3.47 3.66 3.87 3.83 3.74 3.40 3.17 2.84 2.66 2.53 2.63 2.67 2.73 3.17 3.34 3.44 3.47 3.31 3.30 3.36 3.21 2.85 3.20 3.30 3.13 2.49 2.03 1.60 1.21 1.44 1.51 1.62 2.08
2.04 2.59 2.96 3.08 2.84 2.76 2.91 3.08 3.28 3.45 3.55 3.73 3.95 3.86 3.92 3.66 3.38 3.10 2.89 2.64 2.62 2.61 2.76 3.05 3.32 3.35 3.22 3.18 3.19 3.24 3.18 2.96 2.96 3.15 3.36 2.85 2.31 1.92 1.42 1.38 1.54 1.78 2.05
1.87 2.29 2.57 2.52 2.52 2.53 2.55 2.77 3.00 3.21 3.39 3.60 3.64 3.60 3.52 3.37 3.25 3.11 2.73 2.56 2.43 2.42 2.51 2.58 2.81 3.02 3.01 3.04 2.84 2.97 3.08 3.05 2.83 2.93 3.00 2.86 2.62 2.39 1.87 1.50 1.45 1.73 1.89
1.63 1.91 2.05 2.06 2.09 2.15 2.37 2.74 3.01 3.14 3.15 3.18 3.16 3.28 3.17 3.17 3.17 2.99 2.75 2.63 2.59 2.48 2.31 2.37 2.64 2.76 2.80 2.69 2.61 2.74 2.79 2.72 2.64 2.76 2.74 2.74 2.67 2.47 2.28 1.92 1.75 1.64 1.51
1.39 1.68 1.95 2.09 2.10 2.21 2.48 2.78 2.98 3.07 2.99 2.92 2.92 2.99 2.95 3.01 2.96 2.76 2.69 2.50 2.39 2.25 2.15 2.18 2.42 2.52 2.54 2.55 2.57 2.55 2.48 2.50 2.50 2.50 2.58 2.70 2.60 2.49 2.50 2.10 1.88 1.77 1.32
1.48 1.71 1.92 1.97 2.08 2.23 2.30 2.48 2.70 2.82 2.71 2.58 2.59 2.60 2.65 2.64 2.55 2.49 2.44 2.28 2.09 1.91 1.87 1.88 1.93 2.01 2.13 2.26 2.43 2.43 2.37 2.35 2.33 2.27 2.30 2.44 2.40 2.46 2.50 2.32 1.99 1.83 1.44
1.75 1.88 1.96 1.99 1.97 2.05 2.09 2.10 2.23 2.31 2.26 2.25 2.26 2.24 2.23 2.19 2.11 2.18 2.10 1.98 1.84 1.75 1.76 1.71 1.62 1.58 1.64 1.80 2.13 2.24 2.25 2.27 2.19 2.01 2.11 2.12 2.02 2.12 2.22 2.32 2.29 1.97 1.72
1.38 1.65 1.73 1.71 1.68 1.62 1.60 1.65 1.72 1.69 1.66 1.65 1.72 1.73 1.75 1.74 1.72 1.72 1.70 1.65 1.59 1.52 1.48 1.42 1.40 1.42 1.41 1.47 1.67 1.87 2.01 2.10 2.04 1.97 1.98 1.90 1.83 1.84 1.89 2.10 2.25 2.21 1.97
1.08 1.16 1.30 1.35 1.35 1.38 1.38 1.41 1.41 1.43 1.42 1.36 1.35 1.33 1.36 1.36 1.36 1.31 1.22 1.25 1.26 1.26 1.24 1.24 1.24 1.30 1.34 1.36 1.52 1.64 1.80 1.87 1.87 1.85 1.84 1.83 1.75 1.79 1.74 1.77 1.96 2.12 2.20
0.83 0.83 0.89 1.00 1.12 1.22 1.22 1.23 1.24 1.26 1.29 1.25 1.22 1.16 1.15 1.21 1.18 1.12 1.08 1.12 1.13 1.08 1.09 1.13 1.15 1.12 1.12 1.21 1.28 1.32 1.44 1.52 1.59 1.55 1.55 1.60 1.68 1.76 1.62 1.61 1.73 1.93 2.17
0.65 0.66 0.70 0.86 0.99 1.02 1.01 0.99 1.00 1.06 1.07 1.08 1.09 1.05 1.07 1.07 1.00 0.94 0.99 1.10 1.15 1.17 1.22 1.29 1.29 1.16 1.12 1.18 1.15 1.07 1.18 1.35 1.41 1.51 1.63 1.63 1.73 1.81 1.65 1.66 1.75 1.99 2.22
0.60 0.65 0.69 0.81 0.94 0.97 0.98 0.98 1.00 1.02 1.02 0.99 0.98 1.00 0.98 0.95 0.92 0.94 0.99 1.05 1.10 1.13 1.17 1.29 1.36 1.29 1.24 1.20 1.14 1.07 1.08 1.19 1.26 1.39 1.57 1.66 1.85 1.93 1.87 1.81 1.87 2.04 2.24
0.65 0.69 0.72 0.81 0.87 0.96 1.05 1.07 1.08 1.00 0.97 0.91 0.85 0.87 0.86 0.84 0.84 0.89 0.91 0.91 0.94 0.98 0.98 0.99 1.14 1.24 1.28 1.26 1.18 1.16 1.18 1.17 1.15 1.15 1.14 1.17 1.32 1.47 1.70 1.77 1.83 1.93 2.16
0.58 0.60 0.63 0.76 0.85 0.95 1.06 1.03 1.03 0.96 0.95 0.94 0.92 0.88 0.92 0.99 0.94 0.87 0.92 0.88 0.82 0.82 0.91 0.91 0.96 1.07 1.10 1.04 1.08 1.10 1.09 1.14 1.17 1.12 1.03 0.94 0.94 0.99 1.08 1.10 1.36 1.61 1.81
0.49 0.54 0.61 0.73 0.73 0.79 0.91 1.04 1.08 1.04 1.04 1.06 1.05 1.02 1.02 0.97 0.94 0.86 0.85 0.86 0.84 0.84 0.86 0.89 0.90 0.93 0.86 0.92 1.01 1.05 1.03 0.98 0.99 1.03 1.00 0.92 0.84 0.74 0.71 0.75 0.91 1.12 1.36
0.42 0.47 0.56 0.65 0.72 0.78 0.91 1.04 1.05 1.02 1.09 1.15 1.20 1.26 1.16 1.03 0.96 0.88 0.85 0.83 0.89 0.95 0.96 0.97 0.95 0.89 0.89 0.91 0.93 1.01 1.02 0.99 0.93 0.89 0.89 0.77 0.67 0.69 0.61 0.68 0.72 0.73 0.77
0.41 0.46 0.51 0.55 0.59 0.64 0.78 0.99 1.09 1.04 1.09 1.20 1.22 1.27 1.22 1.08 1.01 0.96 0.89 0.90 0.97 0.98 0.98 1.02 1.06 1.06 0.95 0.89 0.85 0.90 0.91 0.95 0.92 0.87 0.83 0.81 0.77 0.75 0.77 0.75 0.73 0.64 0.58
0.43 0.48 0.48 0.48 0.54 0.58 0.67 0.88 0.99 1.03 1.10 1.15 1.19 1.19 1.20 1.14 1.06 1.00 1.01 1.01 1.03 0.96 0.90 0.89 0.98 1.07 1.06 0.93 0.79 0.77 0.71 0.76 0.80 0.83 0.82 0.81 0.80 0.82 0.80 0.79 0.77 0.73 0.67
0.51 0.57 0.60 0.62 0.67 0.72 0.77 0.86 0.94 1.00 1.03 1.08 1.14 1.21 1.28 1.31 1.20 1.14 1.17 1.13 1.13 1.07 1.02 0.95 0.96 0.97 1.01 0.94 0.80 0.77 0.72 0.76 0.82 0.93 0.93 0.85 0.78 0.83 0.84 0.82 0.85 0.85 0.82
0.50 0.56 0.68 0.90 1.03 1.07 1.10 1.12 1.08 1.13 1.15 1.12 1.17 1.26 1.35 1.38 1.37 1.42 1.48 1.45 1.37 1.31 1.24 1.10 1.09 1.12 1.09 1.00 0.81 0.77 0.80 0.91 1.00 1.05 1.09 1.05 0.91 0.82 0.89 0.91 0.90 0.89 0.93
0.37 0.46 0.67 0.93 1.11 1.26 1.39 1.43 1.39 1.28 1.30 1.27 1.31 1.39 1.48 1.47 1.45 1.55 1.59 1.64 1.67 1.60 1.45 1.38 1.33 1.33 1.29 1.11 0.97 0.87 0.85 0.94 1.02 1.03 1.04 1.06 0.91 0.77 0.77 0.80 0.82 0.80 0.75
0.36 0.45 0.60 0.86 1.03 1.12 1.30 1.49 1.50 1.48 1.46 1.46 1.52 1.57 1.64 1.72 1.77 1.80 1.74 1.75 1.78 1.74 1.64 1.59 1.53 1.53 1.55 1.39 1.07 0.93 0.88 0.88 0.88 0.92 0.91 0.90 0.86 0.77 0.71 0.73 0.75 0.72 0.65
0.47 0.54 0.68 0.86 1.02 1.14 1.29 1.43 1.42 1.40 1.51 1.66 1.73 1.71 1.78 1.83 1.96 2.09 1.97 1.87 1.78 1.71 1.65 1.66 1.65 1.66 1.68 1.56 1.25 1.02 0.92 0.89 0.89 0.90 0.88 0.83 0.81 0.81 0.78 0.78 0.71 0.68 0.73
0.61 0.67 0.79 0.87 0.99 1.16 1.28 1.35 1.37 1.48 1.61 1.65 1.66 1.73 1.83 1.95 2.02 2.02 1.97 1.87 1.77 1.65 1.65 1.64 1.62 1.62 1.58 1.48 1.34 1.20 1.12 1.09 1.07 1.04 0.95 0.91 0.91 0.95 0.98 0.98 0.96 0.95 0.96
0.60 0.65 0.76 0.80 0.84 1.01 1.15 1.22 1.34 1.54 1.74 1.73 1.70 1.69 1.70 1.81 1.86 1.89 1.86 1.71 1.60 1.54 1.47 1.48 1.44 1.42 1.42 1.42 1.29 1.15 1.14 1.15 1.14 1.09 1.10 1.12 1.12 1.16 1.19 1.20 1.19 1.14 1.13